Preview of NWS' New Version of Forecast
This preview is not operational and should not be used for support decisions.

Regional Weather Roundup (RWR)

Issued by San Angelo, TX (SJT)

                            
000
ASUS44 KSJT 200915
RWRSJT
WEST CENTRAL TEXAS REGIONAL WEATHER ROUNDUP
NATIONAL WEATHER SERVICE SAN ANGELO TX
300 AM CST WED FEB 20 2019

NOTE: "FAIR" INDICATES FEW OR NO CLOUDS BELOW 12,000 FEET WITH NO
SIGNIFICANT WEATHER AND/OR OBSTRUCTIONS TO VISIBILITY.

TXZ049-054-064>066-071>073-076>078-098-099-113-114-127-128-139-140-
154-155-168>170-201000
...LOCATIONS ACROSS WEST CENTRAL TEXAS...
  
CITY           SKY/WX    TMP DP  RH WIND       PRES   REMARKS
SAN ANGELO     CLEAR     28  25  88 SW3       29.95S FOG              
ABILENE        CLOUDY    33  31  92 W9        29.94F WCI  25          
DYESS AFB      CLOUDY    31  25  78 NW7       29.94S WCI  25          
JUNCTION       CLOUDY    35  32  88 CALM      29.98R                  
SWEETWATER     CLOUDY    29  29 100 CALM      29.95  VSB 1/2          
BROWNWOOD      CLOUDY    36  32  87 NW6       29.96S WCI  31          
COLEMAN        CLOUDY    34  32  92 W7        29.96S WCI  28          
SONORA         FOG       30  30 100 CALM      30.01R VSB 1/4          
OZONA          FAIR      27  25  93 MISG      30.00S                  
BRADY          CLOUDY    32  32 100 NW9       29.95S FOG     WCI  24  
$$

TEXAS PANHANDLE/OKLAHOMA PANHANDLE
  
CITY           SKY/WX    TMP DP  RH WIND       PRES   REMARKS
AMARILLO       CLEAR     25  21  85 SW21      29.72F WCI  11          
BORGER         CLEAR     29  22  75 SW20G26   29.72F WCI  16          
CANADIAN       CLEAR     23  22  94 S6        29.79S WCI  16          
DALHART        CLEAR     14   9  80 N7        29.71R WCI   4          
DUMAS          SUNNY     21  18  88 SW15      29.70F WCI   7          
GUYMON         NOT AVBL                                               
HEREFORD       SUNNY     27  23  85 W18       29.78F FOG     WCI  14  
PAMPA          SUNNY     20  18  93 S8        29.75F WCI  10          
PERRYTON         N/A     16  14  91 S5        29.72F WCI   9          
$$

SOUTHERN PANHANDLE/SOUTH PLAINS/ROLLING PLAINS
  
CITY           SKY/WX    TMP DP  RH WIND       PRES   REMARKS
LUBBOCK        CLEAR     23  19  85 SW9       29.84F WCI  13          
SNYDER         CLEAR     24  24 100 SW8       29.93  FOG     WCI  15  
CHILDRESS      CLEAR     24  22  91 S7        29.87F WCI  16          
SEMINOLE       SUNNY     25  18  75 SW8       29.94R WCI  16          
$$

PERMIAN BASIN
  
CITY           SKY/WX    TMP DP  RH WIND       PRES   REMARKS
MIDLAND        CLOUDY    30  24  78 SW8       29.92S WCI  22          
ODESSA         CLEAR     26  20  77 SW8       29.93R WCI  18          
WINK           CLEAR     27  18  69 W6        29.93S WCI  20          
$$

FAR WEST/SOUTHWEST MOUNTAINS/TRANS PECOS
  
CITY           SKY/WX    TMP DP  RH WIND       PRES   REMARKS
ALPINE         CLOUDY    34  15  46 W9        30.00S WCI  27          
DRYDEN           N/A     32  25  75 S5        29.97  WCI  27          
EL PASO        PTCLDY    36  13  38 N10       29.97F WCI  28          
FORT STOCKTON  CLEAR     31  21  66 SW9       29.97S WCI  23          
GUADALUPE PASS CLEAR     28   9  44 SW29G38   29.87F WCI  12          
MARFA          CLOUDY    33  13  43 CALM      29.97                   
PECOS          SUNNY     38  15  38 W18       29.96S WCI  28          
$$

DALLAS/FORT WORTH METROPLEX
  
CITY           SKY/WX    TMP DP  RH WIND       PRES   REMARKS
DFW AIRPORT    CLOUDY    38  34  85 NW15      29.93R WCI  29          
FTW MEACHAM    CLOUDY    37  36  96 W9        29.95S WCI  30          
DAL-EXECUTIVE    N/A     37  34  89 NW17      29.92R WCI  27          
GRAND PRAIRIE  CLOUDY    38  38 100 W8        29.96  WCI  32          
ADDISON        CLOUDY    38  35  90 W8        29.96R WCI  32          
MESQUITE       CLOUDY    39  37  94 W8        29.94  WCI  33          
LANCASTER      CLOUDY    38  36  91 NW9       29.95S WCI  32          
$$

NORTH CENTRAL TEXAS
  
CITY           SKY/WX    TMP DP  RH WIND       PRES   REMARKS
SHRMAN/DENISON CLOUDY    37  36  96 W8        29.94R WCI  30          
GAINESVILLE    CLOUDY    36  33  90 SW10      29.97R WCI  28          
BRIDGEPORT     CLOUDY    37  34  92 MISG      29.97                   
DENTON         CLOUDY    37  33  85 NW13      29.94S WCI  29          
WAXAHACHIE     CLOUDY    38  38 100 W9        29.95S WCI  31          
GRANBURY       CLOUDY    38  36  90 W10       29.98R WCI  31          
$$

WESTERN NORTH TEXAS
  
CITY           SKY/WX    TMP DP  RH WIND       PRES   REMARKS
WICHITA FALLS  CLOUDY    34  32  92 W10       29.91F WCI  26          
VERNON         SUNNY     29  28  95 SW5       29.93  WCI  24          
BRECKENRIDGE   CLOUDY    35  33  91 NW7       29.96R WCI  29          
COMANCHE       CLOUDY    35  35 100 NW6       29.95F WCI  30          
$$

CENTRAL AND SOUTH CENTRAL TEXAS
  
CITY           SKY/WX    TMP DP  RH WIND       PRES   REMARKS
AUSTIN/BERGSTM CLOUDY    44  39  82 N7        29.93F                  
WACO           MOCLDY    39  36  89 NW8       29.94F WCI  33          
HILLSBORO      CLOUDY    39  39 100 NW10      29.94S WCI  32          
TEMPLE         CLOUDY    40  40 100 NW7       29.94F WCI  35          
KILLEEN-GRAY   CLOUDY    37  36  93 NW10      29.92  WCI  30          
FORT HOOD      NOT AVBL                                               
GEORGETOWN     CLOUDY    39  37  93 NW7       29.96S WCI  34          
LAGO VISTA     FAIR      39  37  92 NW9       29.93S WCI  33          
SAN MARCOS     CLOUDY    42  40  92 N5        29.95S WCI  39          
NEW BRAUNFELS  CLOUDY    43  39  86 N7        29.93S WCI  39          
RANDOLPH AFB   CLOUDY    43  39  86 N6        29.94  WCI  40          
SAN ANTONIO    MOCLDY    42  37  82 NW6       29.94S WCI  38          
STINSON        CLOUDY    45  37  73 CALM      29.94R                  
PLEASANTON     NOT AVBL                                               
LA GRANGE      CLOUDY    44  44 100 N3        29.93S                  
GIDDINGS       CLOUDY    44  43  96 N6        29.94S                  
$$

EAST TEXAS
  
CITY           SKY/WX    TMP DP  RH WIND       PRES   REMARKS
PARIS          CLOUDY    37  37 100 NW7       29.90S WCI  32          
CLARKSVILLE    NOT AVBL                                               
TYLER          CLOUDY    40  38  93 NW3       29.90R                  
LONGVIEW       LGT RAIN  39  39 100 W6        29.91R WCI  35          
PALESTINE      CLOUDY    40  40 100 W3        29.94R                  
NACOGDOCHES    CLOUDY    40  40 100 NW6       29.90R WCI  36          
$$

TEXAS HILL COUNTRY AND EDWARDS PLATEAU
  
CITY           SKY/WX    TMP DP  RH WIND       PRES   REMARKS
LLANO          CLOUDY    39  36  87 NW8       30.00S WCI  34          
HORSESHOE BAY  CLOUDY    40  39  96 NW6       29.95S WCI  36          
KERRVILLE      PTCLDY    36  33  90 NW6       29.94S WCI  31          
FREDERICKSBRG  CLOUDY    36  34  92 NW7       29.95R WCI  31          
ROCKSPRINGS    CLOUDY    32  32 100 NE3       29.98S FOG              
HONDO          CLEAR     41  37  86 N6        29.96R WCI  37          
UVALDE         SUNNY     38  37  96 W6        29.98S WCI  33          
DEL RIO        PTCLDY    37  34  89 NW3       30.00S                  
$$

SOUTHEAST TEXAS
  
CITY           SKY/WX    TMP DP  RH WIND       PRES   REMARKS
COLLEGE STN    CLOUDY    42  42 100 NW7       29.93R WCI  38          
CALDWELL       CLOUDY    42  40  94 N7        29.94S WCI  37          
CROCKETT         N/A     41  39  93 NW5       29.95R FOG     WCI  38  
BRENHAM        CLOUDY    43  43 100 NW10      29.95R WCI  37          
HUNTSVILLE     CLOUDY    41  41 100 NW6       29.91R WCI  37          
CONROE         CLOUDY    44  44 100 NW8       29.91R WCI  39          
HOUSTON BUSH   LGT RAIN  46  46 100 NW7       29.90R FOG              
HOUSTON HOBBY  DRIZZLE   47  45  93 NW10      29.89R                  
PERLAND        CLOUDY    48  48 100 NW10      29.90R                  
WHARTON        CLOUDY    44  42  94 NW10      29.92F WCI  38          
$$

THE UPPER TEXAS COAST
  
CITY           SKY/WX    TMP DP  RH WIND       PRES   REMARKS
ORANGE         CLOUDY    53  53 100 NW5       29.85R FOG              
PORT ARTHUR    LGT RAIN  53  51  93 NW9       29.83R FOG              
GALVESTON      CLOUDY    50  47  89 NW16G25   29.87R                  
ANGLETON       CLOUDY    47  45  93 N12G20    29.88R                  
BAY CITY       DRIZZLE   46  46  99 N8        29.90R                  
$$

TEXAS COASTAL BEND, RIO GRANDE PLAINS DEEP SOUTH TEXAS
  
CITY           SKY/WX    TMP DP  RH WIND       PRES   REMARKS
VICTORIA       CLOUDY    44  42  93 N13       29.94R WCI  38          
BEEVILLE       CLOUDY    47  43  84 N9        29.95R                  
ROCKPORT       LGT RAIN  45  44  97 N18       29.91F FOG     WCI  37  
PORT ARANSAS   LGT RAIN  46  45  96 N21       29.92S WCI  39          
PORT LAVACA    NOT AVBL                                               
CORPUS CHRISTI DRIZZLE   46  43  89 N18       29.92S FOG     WCI  39  
KINGSVILLE NAS LGT RAIN  46  44  93 N10       29.94  FOG              
COTULLA        CLEAR     42  42 100 NW7       29.97R WCI  38          
LAREDO         CLOUDY    49  46  90 N6        29.96R                  
BROWNSVILLE    LGT RAIN  53  53 100 NW15      29.87R                  
PORT ISABEL    LGT RAIN  51  49  92 NW18      29.87R FOG              
HEBBRONVILLE   CLOUDY    45  44  97 CALM      29.94S FOG              
MCALLEN        LGT RAIN  51  51 100 N12       29.92R FOG              
WESLACO        NOT AVBL                                               
FALFURRIAS     CLOUDY    47  44  90 N10       29.94R                  
EDINBURG       CLOUDY    50  48  93 N10       29.92R FOG              
$$